STARLINK-2375 (47914 NORAD) Tracking and Keplerian Element Data

This shows tracking and keplerian element data for the satellite.

Feedback or suggestion? Click here.




ElementValue
Catalog47914
NameSTARLINK-2375
Epoch Orbit195
Epoch Day173.91668981
Epoch Year2021
RAAN86.4577
Inclination53.0517
Eccentricity0.000146
Argument of Perigee67.658
Mean Anonmoly189.2204
Mean Motion15.06394241
Decay Rate5E-06
L11 47914U 21021BG 21173.91668981 .00000500 00000-0 52490-4 0 9992
L22 47914 53.0517 86.4577 0001460 67.6580 189.2204 15.06394241 1954

Live tracking and technical data element details for STARLINK-2375 (NORAD 47914). STARLINK-2375 can be tracked NOW for your location showing map with azimuth and elevation plus other details from your city location.

Track the satellite on the map from your city or location and see movement details for azimuth, elevation, latitude, longitude, range, height, and movement on the map or in text.







IsCatalogInMostPopularTable: catalog: 47914, numindb: 45
Update: records affected: 1



GetName: 47914 STARLINK-2375

Hit Count: updated at: Thu, 24 Jun 2021 02:28:54 GMT